FW7227 Weather Reports


time (UTC)temp
C
wind
direction
speed
KPH
gust
KPH
rain 1hr
cm
rain 24hr
cm
rain mn
cm
humidity
%
barometer
mb
20260901112556 21 250 16.1 32.2 0.00 0.64 0.20 66 1018.3
20260901112057 21 263 16.1 32.2 0.00 0.64 0.20 66 1018.3
20260901111620 21 244 17.7 32.2 0.00 0.64 0.20 64 1018.3
20260901111058 21 265 14.5 30.6 0.00 0.64 0.20 65 1018.2
20260901110559 21 267 16.1 30.6 0.00 0.64 0.20 65 1018.2
20260901110104 21 273 16.1 30.6 0.00 0.64 0.20 66 1018.2
20260901105558 20 273 14.5 30.6 0.00 0.64 0.20 67 1018.2
20260901105058 20 239 14.5 30.6 0.00 0.64 0.20 67 1018.3
20260901104603 20 277 16.1 30.6 0.00 0.64 0.20 67 1018.2
20260901104057 21 251 17.7 32.2 0.00 0.64 0.20 65 1018.2
20260901103557 21 252 16.1 32.2 0.00 0.64 0.20 70 1018.1
20260901103059 20 259 11.3 27.4 0.00 0.64 0.20 69 1018.2
20260901102557 21 251 14.5 37.0 0.00 0.64 0.20 69 1018.1
20260901102102 20 275 17.7 37.0 0.00 0.64 0.20 70 1018.2
20260901101607 20 281 20.9 35.4 0.00 0.64 0.20 69 1018.3
20260901101056 20 248 12.9 27.4 0.00 0.64 0.20 69 1018.2
20260901100557 20 246 12.9 27.4 0.00 0.64 0.20 74 1018.2
20260901100107 19 254 14.5 27.4 0.00 0.64 0.20 73 1018.1
20260901095601 19 229 12.9 29.0 0.00 0.64 0.20 76 1018.1
20260901095058 18 250 11.3 29.0 0.00 0.64 0.20 76 1018.1
20260901094604 18 232 14.5 25.7 0.00 0.64 0.20 78 1018.1
20260901094056 18 255 11.3 27.4 0.00 0.64 0.20 79 1018.1
20260901093557 18 259 14.5 27.4 0.00 0.64 0.20 79 1018.1
20260901093104 18 268 17.7 27.4 0.00 0.64 0.20 78 1018.1
20260901092557 18 244 12.9 27.4 0.00 0.64 0.20 78 1018.0
20260901092057 18 271 8.0 27.4 0.00 0.64 0.20 78 1018.1
20260901091612 18 271 4.8 27.4 0.00 0.64 0.20 81 1018.0
20260901091056 18 294 11.3 27.4 0.00 0.64 0.20 81 1018.1
20260901090556 17 260 14.5 29.0 0.00 0.64 0.20 81 1018.0
20260901090108 18 254 12.9 29.0 0.00 0.64 0.20 80 1018.0
20260901085557 18 286 11.3 24.1 0.00 0.64 0.20 82 1018.0
20260901085100 17 265 12.9 25.7 0.00 0.64 0.20 82 1017.9
20260901084608 17 257 11.3 25.7 0.00 0.64 0.20 83 1017.9
20260901084057 17 262 16.1 25.7 0.00 0.64 0.20 83 1017.9
20260901083558 17 269 14.5 27.4 0.00 0.64 0.20 84 1017.8
20260901083107 17 250 12.9 27.4 0.00 0.64 0.20 85 1017.8
20260901082557 17 259 14.5 22.5 0.00 0.64 0.20 85 1017.8
20260901082059 17 223 11.3 22.5 0.00 0.64 0.20 86 1017.8
20260901081607 17 234 9.7 27.4 0.00 0.64 0.20 87 1017.8
20260901081056 17 259 11.3 27.4 0.00 0.64 0.20 87 1017.8
20260901080556 17 253 12.9 27.4 0.00 0.64 0.20 88 1017.8
20260901080104 17 248 14.5 27.4 0.00 0.64 0.20 88 1017.7
20260901075556 16 250 12.9 24.1 0.18 0.64 0.20 90 1017.7
20260901075057 16 229 12.9 24.1 0.18 0.64 0.20 90 1017.7
20260901074603 16 238 11.3 20.9 0.18 0.64 0.20 90 1017.6
20260901074058 16 254 11.3 20.9 0.20 0.64 0.20 91 1017.6
20260901073557 16 256 11.3 20.9 0.20 0.64 0.20 91 1017.6
20260901073121 16 254 6.4 19.3 0.20 0.64 0.20 91 1017.6
20260901072558 16 239 6.4 16.1 0.20 0.64 0.20 92 1017.5
20260901072057 15 241 6.4 16.1 0.20 0.64 0.20 91 1017.6
20260901071606 15 271 6.4 14.5 0.20 0.64 0.20 91 1017.5
20260901071057 15 238 6.4 14.5 0.18 0.61 0.18 90 1017.5
20260901070558 15 256 4.8 14.5 0.18 0.61 0.18 89 1017.5
20260901070115 16 278 6.4 17.7 0.18 0.61 0.18 89 1017.5
20260901065557 16 269 6.4 22.5 0.03 0.46 0.03 88 1017.5
20260901065056 16 255 11.3 24.1 0.00 0.43 0.00 87 1017.4
20260901064610 16 277 11.3 24.1 0.00 0.43 0.00 85 1017.4
20260901064057 16 254 11.3 24.1 0.00 0.41 0.00 85 1017.2
20260901063556 16 258 12.9 24.1 0.00 0.41 0.00 85 1017.2
20260901063104 16 271 12.9 24.1 0.00 0.41 0.00 85 1017.2
20260901062559 16 253 11.3 19.3 0.00 0.41 0.00 86 1017.2
20260901062059 16 233 11.3 24.1 0.00 0.41 0.00 86 1017.2
20260901061606 15 245 8.0 24.1 0.00 0.41 0.00 86 1017.1
20260901061058 15 234 11.3 20.9 0.00 0.41 0.00 86 1017.1
20260901060557 15 217 8.0 20.9 0.00 0.41 0.00 87 1017.0
20260901060103 15 248 9.7 25.7 0.00 0.41 0.00 86 1017.0
20260901055556 15 232 11.3 25.7 0.00 0.41 0.00 87 1017.0
20260901055057 15 229 8.0 19.3 0.00 0.41 0.00 87 1016.9
20260901054605 15 244 9.7 19.3 0.00 0.41 0.00 87 1016.8
20260901054057 15 248 8.0 16.1 0.00 0.41 0.00 87 1016.8
20260901053559 15 232 8.0 16.1 0.00 0.41 0.00 87 1016.8
20260901053114 15 249 8.0 16.1 0.00 0.41 0.00 87 1016.8
20260901052556 15 243 6.4 14.5 0.00 0.41 0.00 88 1016.7
20260901052056 15 235 4.8 17.7 0.00 0.41 0.00 87 1016.6
20260901051604 15 243 9.7 17.7 0.00 0.41 0.00 87 1016.6
20260901051056 15 227 6.4 16.1 0.00 0.41 0.00 87 1016.6
20260901050629 15 249 6.4 17.7 0.00 0.41 0.00 87 1016.6
20260901050104 15 239 6.4 17.7 0.00 0.41 0.00 87 1016.4
20260901045558 15 265 11.3 17.7 0.00 0.41 0.00 87 1016.4
20260901045057 15 277 9.7 17.7 0.00 0.41 0.00 87 1016.4
20260901044601 15 229 6.4 16.1 0.00 0.41 0.00 87 1016.3
20260901044058 15 237 8.0 20.9 0.00 0.41 0.00 87 1016.2
20260901043557 15 246 8.0 20.9 0.00 0.41 0.00 87 1016.2
20260901043059 15 242 8.0 19.3 0.00 0.41 0.00 87 1016.1
20260901042555 15 250 6.4 19.3 0.00 0.41 0.00 87 1016.1
20260901042056 15 254 8.0 19.3 0.00 0.41 0.00 87 1016.1
20260901041604 15 247 9.7 16.1 0.00 0.41 0.00 87 1016.1
20260901041057 15 266 9.7 19.3 0.00 0.41 0.00 86 1016.0
20260901040556 15 244 8.0 19.3 0.00 0.41 0.00 86 1015.9
20260901040105 15 255 8.0 20.9 0.00 0.41 0.00 86 1015.8
20260901035556 15 234 9.7 20.9 0.00 0.41 0.00 86 1015.8
20260901035056 15 228 8.0 17.7 0.00 0.41 0.00 86 1015.8
20260901034602 15 257 9.7 17.7 0.00 0.41 0.00 86 1015.8
20260901034055 15 248 8.0 17.7 0.00 0.41 0.00 86 1015.8
20260901033555 15 252 8.0 16.1 0.00 0.41 0.00 86 1015.7
20260901033119 15 259 8.0 16.1 0.00 0.41 0.00 86 1015.7
20260901032559 15 262 8.0 17.7 0.00 0.41 0.00 86 1015.6
20260901032056 15 275 9.7 17.7 0.00 0.41 0.00 86 1015.6
20260901031604 15 257 9.7 19.3 0.00 0.41 0.00 86 1015.7
20260901031055 15 260 9.7 19.3 0.00 0.41 0.00 85 1015.6
20260901030556 15 254 9.7 24.1 0.00 0.41 0.00 85 1015.6
20260901030107 15 279 12.9 24.1 0.00 0.41 0.00 85 1015.6
20260901025556 15 261 8.0 19.3 0.00 0.41 0.00 85 1015.5
20260901025056 15 265 9.7 19.3 0.00 0.41 0.00 85 1015.4
20260901024603 15 252 9.7 24.1 0.00 0.41 0.00 85 1015.4
20260901024055 15 250 11.3 24.1 0.00 0.41 0.00 85 1015.4
20260901023555 15 253 11.3 24.1 0.00 0.41 0.00 85 1015.4
20260901023104 15 288 9.7 22.5 0.00 0.41 0.00 85 1015.4
20260901022555 15 266 8.0 24.1 0.00 0.41 0.00 85 1015.4
20260901022055 15 258 12.9 24.1 0.00 0.41 0.00 85 1015.4
20260901021610 15 236 11.3 24.1 0.00 0.41 0.00 85 1015.3
20260901021055 15 265 9.7 24.1 0.00 0.41 0.00 85 1015.3
20260901020555 15 262 9.7 27.4 0.00 0.41 0.00 85 1015.3
20260901020119 15 251 9.7 27.4 0.00 0.41 0.00 85 1015.2
20260901015558 15 294 12.9 25.7 0.00 0.41 0.00 85 1015.3
20260901015058 15 265 11.3 25.7 0.00 0.41 0.00 85 1015.2
20260901014601 15 265 11.3 25.7 0.00 0.41 0.00 85 1015.2
20260901014058 15 238 9.7 20.9 0.00 0.41 0.00 85 1015.2
20260901013558 15 263 8.0 22.5 0.00 0.41 0.00 85 1015.2
20260901013115 15 257 9.7 22.5 0.00 0.41 0.00 85 1015.2
20260901012557 15 253 8.0 22.5 0.00 0.41 0.00 85 1015.2
20260901012058 15 248 9.7 20.9 0.00 0.41 0.00 85 1015.1
20260901011621 15 281 11.3 22.5 0.00 0.41 0.00 85 1015.1
20260901011057 15 270 12.9 22.5 0.00 0.41 0.00 86 1015.1
20260901010558 15 254 9.7 19.3 0.00 0.41 0.00 86 1015.1
20260901010117 15 280 11.3 22.5 0.00 0.41 0.00 86 1015.1
20260901005558 15 264 11.3 22.5 0.00 0.41 0.00 86 1015.1
20260901005059 15 246 12.9 19.3 0.00 0.41 0.00 86 1015.1
20260901004604 15 244 8.0 19.3 0.00 0.41 0.00 86 1015.0
20260901004057 15 269 11.3 20.9 0.00 0.41 0.00 86 1015.0
20260901003600 15 238 8.0 22.5 0.00 0.41 0.00 86 1015.0
20260901003105 15 258 12.9 27.4 0.00 0.41 0.00 86 1014.9
20260901002601 15 271 12.9 27.4 0.00 0.41 0.00 86 1014.9
20260901002100 15 265 11.3 25.7 0.00 0.41 0.00 86 1014.9
20260901001604 15 267 11.3 24.1 0.00 0.41 0.00 86 1014.9
20260901001057 15 262 11.3 24.1 0.00 0.41 0.00 86 1014.8
20260901000558 15 262 8.0 24.1 0.00 0.41 0.00 86 1014.8
20260901000104 15 284 11.3 24.1 0.00 0.41 0.00 86 1014.7
20260831235558 15 260 8.0 22.5 0.00 0.41 0.00 86 1014.7
20260831235058 15 274 11.3 25.7 0.00 0.41 0.00 86 1014.6
20260831234604 15 302 12.9 29.0 0.00 0.41 0.00 86 1014.5
20260831234057 15 234 12.9 29.0 0.00 0.41 0.00 86 1014.5
20260831233558 15 261 11.3 25.7 0.00 0.41 0.00 86 1014.4
20260831233103 15 240 12.9 24.1 0.00 0.41 0.00 86 1014.5
20260831232559 15 274 12.9 22.5 0.00 0.41 0.00 86 1014.3
20260831232100 15 260 12.9 29.0 0.00 0.41 0.00 86 1014.2
20260831231604 15 258 11.3 29.0 0.00 0.41 0.00 87 1014.2
20260831231057 15 257 16.1 29.0 0.00 0.41 0.00 87 1014.2
20260831230601 15 238 11.3 22.5 0.00 0.41 0.00 87 1014.1
20260831230120 15 262 11.3 24.1 0.00 0.41 0.00 88 1014.2
20260831225601 15 258 12.9 24.1 0.00 0.41 0.00 88 1014.2
20260831225058 15 233 9.7 22.5 0.00 0.41 0.00 89 1014.1
20260831224611 15 238 9.7 22.5 0.00 0.41 0.00 88 1014.1
20260831224101 15 241 12.9 22.5 0.00 0.41 0.00 88 1014.0
20260831223559 15 262 12.9 22.5 0.00 0.41 0.00 88 1014.0
20260831223101 15 238 12.9 24.1 0.00 0.41 0.00 88 1014.0
20260831222556 15 243 14.5 27.4 0.00 0.41 0.00 88 1014.0
20260831222059 15 262 11.3 27.4 0.00 0.41 0.00 89 1014.0
20260831221610 15 256 12.9 24.1 0.00 0.41 0.00 90 1013.9
20260831221057 14 251 11.3 24.1 0.00 0.41 0.00 90 1014.0
20260831220557 14 243 9.7 16.1 0.00 0.41 0.00 90 1014.0
20260831220115 14 247 6.4 16.1 0.00 0.41 0.00 90 1013.9
20260831215556 14 234 6.4 16.1 0.00 0.41 0.41 90 1013.8
20260831215056 14 247 6.4 16.1 0.00 0.41 0.41 90 1013.8
20260831214610 14 244 6.4 19.3 0.00 0.41 0.41 90 1013.8
20260831214055 14 238 9.7 19.3 0.00 0.41 0.41 90 1013.8
20260831213556 14 246 6.4 17.7 0.00 0.41 0.41 90 1013.7
20260831213058 14 225 8.0 17.7 0.00 0.41 0.41 90 1013.6
20260831212556 13 237 8.0 16.1 0.00 0.41 0.41 90 1013.6
20260831212058 13 230 6.4 19.3 0.00 0.41 0.41 90 1013.6
20260831211608 14 239 4.8 19.3 0.00 0.41 0.41 90 1013.5
20260831211056 14 229 6.4 16.1 0.00 0.41 0.41 89 1013.3
20260831210555 14 236 6.4 16.1 0.00 0.41 0.41 89 1013.3
20260831210100 14 248 8.0 16.1 0.00 0.41 0.41 89 1013.4
20260831205556 14 238 8.0 17.7 0.00 0.41 0.41 89 1013.4
20260831205057 14 236 6.4 17.7 0.00 0.41 0.41 89 1013.4
20260831204603 14 261 6.4 17.7 0.00 0.41 0.41 89 1013.4
20260831204056 14 236 8.0 17.7 0.00 0.41 0.41 89 1013.4
20260831203558 14 244 9.7 19.3 0.00 0.41 0.41 89 1013.3
20260831203108 14 227 8.0 20.9 0.00 0.41 0.41 90 1013.2
20260831202555 14 217 11.3 20.9 0.00 0.41 0.41 90 1013.2
20260831202056 14 225 8.0 19.3 0.00 0.41 0.41 90 1013.2
20260831201601 14 242 9.7 19.3 0.00 0.41 0.41 90 1013.1
20260831201100 14 239 8.0 16.1 0.00 0.41 0.41 90 1013.1
20260831200556 14 252 4.8 17.7 0.00 0.41 0.41 90 1013.0
20260831200110 14 243 9.7 17.7 0.00 0.41 0.41 89 1013.0
20260831195559 14 234 9.7 17.7 0.00 0.41 0.41 89 1013.0
20260831195056 15 232 6.4 17.7 0.00 0.41 0.41 89 1012.9
20260831194618 15 213 9.7 22.5 0.00 0.41 0.41 89 1012.8
20260831194056 15 229 11.3 22.5 0.00 0.41 0.41 89 1012.8
20260831193558 15 258 8.0 19.3 0.00 0.41 0.41 90 1012.8
20260831193101 15 236 8.0 22.5 0.00 0.41 0.41 90 1012.7
20260831192558 15 231 9.7 22.5 0.00 0.41 0.41 90 1012.7
20260831192058 15 240 6.4 22.5 0.00 0.41 0.41 89 1012.7
20260831191615 15 229 11.3 22.5 0.00 0.41 0.41 89 1012.7
20260831191100 14 238 11.3 27.4 0.00 0.41 0.41 89 1012.5
20260831190600 14 260 9.7 27.4 0.00 0.41 0.41 90 1012.4
20260831190115 14 248 11.3 22.5 0.00 0.41 0.41 90 1012.4
20260831185558 15 221 11.3 22.5 0.00 0.41 0.41 90 1012.2
20260831185057 15 234 9.7 22.5 0.00 0.41 0.41 90 1012.2
20260831184605 15 248 6.4 22.5 0.00 0.41 0.41 89 1012.2
20260831184057 15 247 9.7 17.7 0.00 0.41 0.41 90 1012.1
20260831183557 15 223 8.0 20.9 0.00 0.41 0.41 89 1012.1
20260831183120 15 237 9.7 29.0 0.00 0.41 0.41 89 1012.0
20260831182558 15 261 11.3 29.0 0.03 0.41 0.41 89 1011.9
20260831182058 15 224 8.0 20.9 0.05 0.41 0.41 89 1011.9
20260831181604 15 226 9.7 17.7 0.08 0.41 0.41 89 1011.9
20260831181057 15 240 6.4 17.7 0.10 0.41 0.41 90 1011.9
20260831180558 15 211 9.7 17.7 0.13 0.41 0.41 90 1011.9
20260831180115 15 236 4.8 12.9 0.15 0.41 0.41 90 1011.9
20260831175557 15 223 4.8 14.5 0.15 0.41 0.41 90 1011.9
20260831175058 15 213 4.8 16.1 0.18 0.41 0.41 90 1011.9
20260831174608 15 242 8.0 17.7 0.18 0.41 0.41 89 1011.8
20260831174100 15 246 9.7 17.7 0.18 0.41 0.41 89 1011.9
20260831173558 15 246 8.0 16.1 0.18 0.41 0.41 89 1011.8
20260831173103 15 256 9.7 16.1 0.18 0.38 0.38 89 1011.7
20260831172557 16 244 6.4 19.3 0.15 0.36 0.36 88 1011.6
20260831172057 16 238 6.4 19.3 0.13 0.36 0.36 87 1011.6
20260831171605 16 222 11.3 25.7 0.08 0.30 0.30 87 1011.6
20260831171057 16 238 11.3 25.7 0.08 0.28 0.28 86 1011.6
20260831170557 16 221 9.7 30.6 0.05 0.28 0.28 86 1011.6
20260831170107 16 232 14.5 32.2 0.03 0.25 0.25 85 1011.8
20260831165600 16 238 17.7 32.2 0.03 0.25 0.25 85 1011.8
20260831165057 16 244 11.3 25.7 0.00 0.20 0.20 85 1011.8
20260831164559 16 240 11.3 25.7 0.00 0.20 0.20 85 1011.6
20260831164057 16 221 11.3 22.5 0.00 0.20 0.20 85 1011.6
20260831163557 16 232 12.9 22.5 0.00 0.20 0.20 85 1011.4
20260831163103 16 222 4.8 12.9 0.00 0.20 0.20 86 1011.4
20260831162558 16 0 4.8 17.7 0.00 0.20 0.20 86 1011.3
20260831162057 16 198 8.0 17.7 0.00 0.20 0.20 85 1011.2
20260831161608 17 204 8.0 17.7 0.00 0.20 0.20 85 1011.2
20260831161057 17 203 6.4 16.1 0.00 0.20 0.20 85 1011.0
20260831160601 17 215 8.0 16.1 0.00 0.20 0.20 85 1011.0
20260831160109 17 224 8.0 16.1 0.00 0.20 0.20 85 1011.1
20260831155558 17 230 4.8 16.1 0.00 0.20 0.20 85 1011.0
20260831155102 16 238 6.4 19.3 0.00 0.20 0.20 86 1011.0
20260831154629 16 223 8.0 19.3 0.03 0.20 0.20 85 1011.0
20260831154058 16 225 8.0 19.3 0.15 0.20 0.20 85 1011.0
20260831153557 16 225 8.0 19.3 0.15 0.20 0.20 85 1011.0
20260831153059 16 227 8.0 19.3 0.15 0.20 0.20 85 1011.1
20260831152558 16 239 6.4 16.1 0.15 0.20 0.20 85 1011.0
20260831152057 16 236 8.0 16.1 0.15 0.20 0.20 84 1011.0
20260831151605 17 253 3.2 14.5 0.15 0.20 0.20 85 1010.9
20260831151057 17 223 6.4 17.7 0.15 0.20 0.20 85 1010.9
20260831150557 17 229 9.7 17.7 0.15 0.20 0.20 82 1011.1
20260831150112 17 234 8.0 25.7 0.13 0.18 0.18 80 1011.2
20260831145556 17 239 9.7 32.2 0.13 0.18 0.18 77 1011.0
20260831145058 18 250 14.5 57.9 0.13 0.18 0.18 75 1011.1
20260831144606 19 244 24.1 57.9 0.10 0.18 0.18 70 1010.9
20260831144057 21 236 24.1 57.9 0.00 0.05 0.05 62 1010.9
20260831143557 21 274 8.0 22.5 0.00 0.05 0.05 62 1010.4
20260831143105 21 241 11.3 24.1 0.00 0.05 0.05 61 1010.3
20260831142558 21 259 8.0 24.1 0.00 0.05 0.05 60 1010.4
20260831142058 22 238 11.3 25.7 0.00 0.05 0.05 59 1010.4
20260831141614 22 243 14.5 25.7 0.00 0.05 0.05 59 1010.4
20260831141059 22 256 9.7 25.7 0.00 0.05 0.05 61 1010.2
20260831140557 22 240 9.7 25.7 0.00 0.05 0.05 62 1010.3
20260831140105 22 247 9.7 27.4 0.05 0.05 0.05 63 1010.2
20260831135557 22 239 14.5 27.4 0.05 0.05 0.05 66 1010.2
20260831135057 22 273 6.4 20.9 0.05 0.05 0.05 70 1010.2
20260831134606 21 243 12.9 20.9 0.05 0.05 0.05 69 1010.2
20260831134056 21 242 8.0 24.1 0.05 0.05 0.05 71 1010.3
20260831133558 20 261 8.0 24.1 0.05 0.05 0.05 73 1010.3
20260831133106 20 248 11.3 24.1 0.05 0.05 0.05 74 1010.2
20260831132557 20 234 6.4 12.9 0.05 0.05 0.05 77 1010.2
20260831132057 19 255 6.4 22.5 0.05 0.05 0.05 80 1010.3
20260831131606 19 243 8.0 22.5 0.05 0.05 0.05 76 1010.4
20260831131057 20 253 11.3 41.8 0.05 0.05 0.05 72 1010.4
20260831130557 21 263 16.1 41.8 0.05 0.05 0.05 71 1010.4
20260831130104 22 238 24.1 40.2 0.00 0.00 0.00 62 1010.6
20260831125558 22 360 19.3 32.2 0.00 0.00 0.00 56 1010.3
20260831125056 23 360 14.5 30.6 0.00 0.00 0.00 55 1010.1
20260831124559 23 360 11.3 30.6 0.00 0.00 0.00 53 1010.1
20260831124057 24 223 9.7 35.4 0.00 0.00 0.00 51 1010.1
20260831123556 24 360 12.9 35.4 0.00 0.00 0.00 49 1010.0
20260831123110 24 360 16.1 33.8 0.00 0.00 0.00 50 1010.0
20260831122559 24 360 17.7 38.6 0.00 0.00 0.00 50 1010.0
20260831122057 23 222 17.7 38.6 0.00 0.00 0.00 54 1010.0
20260831121609 23 360 17.7 33.8 0.00 0.00 0.00 54 1010.0
20260831121059 23 360 12.9 30.6 0.00 0.00 0.00 54 1009.9
20260831120556 23 219 16.1 30.6 0.00 0.00 0.00 54 1010.1
20260831120124 23 229 14.5 35.4 0.00 0.00 0.00 55 1010.2
20260831115557 23 360 16.1 35.4 0.00 0.00 0.00 54 1010.1
20260831115059 23 249 17.7 35.4 0.00 0.00 0.00 54 1010.1
20260831114600 23 231 16.1 35.4 0.00 0.00 0.00 54 1010.0
20260831114057 24 360 14.5 35.4 0.00 0.00 0.00 53 1010.1
20260831113557 25 200 16.1 33.8 0.00 0.00 0.00 52 1010.1
20260831113107 24 180 17.7 33.8 0.00 0.00 0.00 51 1010.2